| time (UTC) | temp F | wind direction | speed MPH | gust MPH | rain 1hr in | rain 24hr in | rain mn in | humidity % | barometer mb |
| 20260507213229 | 81 | 348 | 1.0 | 1.0 | 0.00 | 0.00 | 0.00 | 85 | 1008.5 |
| 20260507212730 | 81 | 329 | 1.0 | 2.0 | 0.00 | 0.00 | 0.00 | 85 | 1008.5 |
| 20260507212228 | 81 | 340 | 1.0 | 1.0 | 0.00 | 0.00 | 0.00 | 85 | 1008.8 |
| 20260507211728 | 82 | 344 | 1.0 | 1.0 | 0.00 | 0.00 | 0.00 | 85 | 1008.5 |
| 20260507211229 | 82 | 356 | 0.0 | 2.0 | 0.00 | 0.00 | 0.00 | 85 | 1008.5 |
| 20260507210727 | 82 | 7 | 0.0 | 0.0 | 0.00 | 0.00 | 0.00 | 85 | 1008.5 |
| 20260507210229 | 81 | 95 | 0.0 | 0.0 | 0.00 | 0.00 | 0.00 | 85 | 1008.1 |
| 20260507205728 | 81 | 96 | 0.0 | 0.0 | 0.00 | 0.00 | 0.00 | 85 | 1008.1 |
| 20260507205236 | 81 | 89 | 0.0 | 0.0 | 0.00 | 0.00 | 0.00 | 85 | 1008.5 |
| 20260507204727 | 81 | 93 | 0.0 | 1.0 | 0.00 | 0.00 | 0.00 | 85 | 1008.5 |
| 20260507204227 | 82 | 110 | 0.0 | 1.0 | 0.00 | 0.00 | 0.00 | 84 | 1008.5 |
| 20260507203728 | 82 | 55 | 0.0 | 1.0 | 0.00 | 0.00 | 0.00 | 84 | 1008.5 |
| 20260507203228 | 82 | 45 | 0.0 | 1.0 | 0.00 | 0.00 | 0.00 | 84 | 1008.5 |
| 20260507202729 | 82 | 45 | 0.0 | 0.0 | 0.00 | 0.00 | 0.00 | 84 | 1008.5 |
| 20260507202227 | 82 | 354 | 0.0 | 0.0 | 0.00 | 0.00 | 0.00 | 84 | 1008.5 |
| 20260507201728 | 82 | 344 | 0.0 | 2.0 | 0.00 | 0.00 | 0.00 | 84 | 1008.8 |
| 20260507201229 | 82 | 343 | 1.0 | 1.0 | 0.00 | 0.00 | 0.00 | 84 | 1008.8 |
| 20260507200733 | 82 | 342 | 2.0 | 2.0 | 0.00 | 0.00 | 0.00 | 84 | 1008.8 |
| 20260507200228 | 82 | 347 | 1.0 | 1.0 | 0.00 | 0.00 | 0.00 | 84 | 1008.8 |
| 20260507195727 | 82 | 357 | 0.0 | 1.0 | 0.00 | 0.00 | 0.00 | 84 | 1008.8 |
| 20260507195227 | 82 | 48 | 0.0 | 0.0 | 0.00 | 0.00 | 0.00 | 84 | 1008.8 |
| 20260507194729 | 82 | 333 | 0.0 | 1.0 | 0.00 | 0.00 | 0.00 | 84 | 1008.8 |
| 20260507194230 | 82 | 1 | 1.0 | 3.0 | 0.00 | 0.00 | 0.00 | 84 | 1008.8 |
| 20260507193728 | 82 | 358 | 1.0 | 3.0 | 0.00 | 0.00 | 0.00 | 84 | 1009.1 |
| 20260507193227 | 82 | 354 | 1.0 | 3.0 | 0.00 | 0.00 | 0.00 | 84 | 1009.5 |
| 20260507192727 | 82 | 339 | 1.0 | 1.0 | 0.00 | 0.00 | 0.00 | 84 | 1009.5 |
| 20260507192230 | 82 | 347 | 1.0 | 2.0 | 0.00 | 0.00 | 0.00 | 85 | 1009.1 |
| 20260507191728 | 82 | 349 | 0.0 | 0.0 | 0.00 | 0.00 | 0.00 | 85 | 1009.5 |
| 20260507191227 | 82 | 355 | 1.0 | 1.0 | 0.00 | 0.00 | 0.00 | 85 | 1009.5 |
| 20260507190728 | 82 | 50 | 0.0 | 0.0 | 0.00 | 0.00 | 0.00 | 85 | 1009.5 |
| 20260507190228 | 82 | 116 | 0.0 | 1.0 | 0.00 | 0.00 | 0.00 | 85 | 1009.1 |
| 20260507185728 | 82 | 115 | 0.0 | 0.0 | 0.00 | 0.00 | 0.00 | 85 | 1009.1 |
| 20260507185229 | 81 | 116 | 0.0 | 0.0 | 0.00 | 0.00 | 0.00 | 85 | 1009.5 |
| 20260507184727 | 82 | 116 | 0.0 | 1.0 | 0.00 | 0.00 | 0.00 | 85 | 1009.1 |
| 20260507184227 | 82 | 116 | 1.0 | 2.0 | 0.00 | 0.00 | 0.00 | 85 | 1009.1 |
| 20260507183728 | 82 | 99 | 0.0 | 2.0 | 0.00 | 0.00 | 0.00 | 84 | 1009.1 |
| 20260507183230 | 82 | 80 | 0.0 | 0.0 | 0.00 | 0.00 | 0.00 | 84 | 1009.1 |
| 20260507182729 | 82 | 80 | 0.0 | 0.0 | 0.00 | 0.00 | 0.01 | 84 | 1009.1 |
| 20260507182228 | 82 | 80 | 0.0 | 0.0 | 0.00 | 0.00 | 0.01 | 83 | 1009.5 |
| 20260507181729 | 82 | 79 | 1.0 | 2.0 | 0.00 | 0.00 | 0.01 | 83 | 1009.5 |
| 20260507181229 | 83 | 92 | 1.0 | 2.0 | 0.00 | 0.00 | 0.01 | 83 | 1009.5 |
| 20260507150230 | 85 | 120 | 0.0 | 1.0 | 0.00 | 0.00 | 0.01 | 76 | 1007.8 |
| 20260507145727 | 85 | 122 | 0.0 | 0.0 | 0.00 | 0.00 | 0.01 | 76 | 1007.8 |
| 20260507145229 | 85 | 118 | 0.0 | 1.0 | 0.00 | 0.00 | 0.01 | 76 | 1008.1 |
| 20260507144731 | 85 | 109 | 0.0 | 0.0 | 0.00 | 0.00 | 0.01 | 76 | 1007.8 |
| 20260507144228 | 85 | 104 | 0.0 | 0.0 | 0.00 | 0.00 | 0.01 | 75 | 1007.8 |
| 20260507143730 | 85 | 86 | 0.0 | 0.0 | 0.00 | 0.00 | 0.01 | 75 | 1007.5 |
| 20260507143227 | 86 | 164 | 0.0 | 1.0 | 0.00 | 0.00 | 0.01 | 75 | 1007.8 |
| 20260507142730 | 86 | 217 | 0.0 | 1.0 | 0.00 | 0.00 | 0.01 | 75 | 1007.5 |
| 20260507142227 | 86 | 315 | 1.0 | 3.0 | 0.00 | 0.00 | 0.01 | 75 | 1007.5 |
| 20260507141729 | 86 | 107 | 0.0 | 0.0 | 0.00 | 0.00 | 0.01 | 75 | 1007.1 |
| 20260507141230 | 86 | 113 | 1.0 | 1.0 | 0.00 | 0.00 | 0.01 | 75 | 1007.1 |
| 20260507140728 | 86 | 131 | 0.0 | 1.0 | 0.00 | 0.00 | 0.01 | 75 | 1007.5 |
| 20260507140229 | 86 | 120 | 0.0 | 1.0 | 0.00 | 0.00 | 0.01 | 74 | 1007.1 |
| 20260507135730 | 86 | 95 | 0.0 | 2.0 | 0.00 | 0.00 | 0.01 | 74 | 1007.1 |
| 20260507135230 | 87 | 111 | 0.0 | 0.0 | 0.00 | 0.00 | 0.01 | 73 | 1006.8 |
| 20260507134728 | 87 | 102 | 1.0 | 1.0 | 0.00 | 0.00 | 0.01 | 73 | 1006.8 |
| 20260507134228 | 87 | 117 | 1.0 | 1.0 | 0.00 | 0.00 | 0.01 | 73 | 1006.8 |
| 20260507133727 | 87 | 74 | 0.0 | 2.0 | 0.00 | 0.00 | 0.01 | 73 | 1006.4 |
| 20260507133227 | 87 | 180 | 2.0 | 5.0 | 0.00 | 0.00 | 0.01 | 73 | 1006.4 |
| 20260507132730 | 87 | 171 | 1.0 | 5.0 | 0.00 | 0.00 | 0.01 | 72 | 1006.4 |
| 20260507132230 | 87 | 162 | 2.0 | 3.0 | 0.00 | 0.00 | 0.01 | 71 | 1006.4 |
| 20260507131730 | 87 | 101 | 1.0 | 3.0 | 0.00 | 0.00 | 0.01 | 71 | 1006.4 |
| 20260507131228 | 87 | 159 | 5.0 | 6.0 | 0.00 | 0.00 | 0.01 | 71 | 1006.4 |
| 20260507130733 | 88 | 161 | 3.0 | 5.0 | 0.00 | 0.00 | 0.01 | 71 | 1006.4 |
| 20260507130230 | 88 | 178 | 4.0 | 7.0 | 0.00 | 0.00 | 0.01 | 70 | 1006.1 |
| 20260507125729 | 88 | 163 | 3.0 | 5.0 | 0.00 | 0.00 | 0.01 | 70 | 1006.4 |
| 20260507125228 | 88 | 188 | 1.0 | 2.0 | 0.00 | 0.00 | 0.01 | 69 | 1006.4 |
| 20260507124731 | 89 | 145 | 3.0 | 3.0 | 0.00 | 0.00 | 0.01 | 69 | 1006.1 |
| 20260507124228 | 89 | 182 | 1.0 | 6.0 | 0.00 | 0.00 | 0.01 | 68 | 1006.1 |
| 20260507123727 | 89 | 174 | 2.0 | 6.0 | 0.00 | 0.00 | 0.01 | 68 | 1005.8 |
| 20260507123228 | 89 | 92 | 1.0 | 6.0 | 0.00 | 0.00 | 0.01 | 67 | 1006.1 |
| 20260507122728 | 90 | 200 | 4.0 | 7.0 | 0.00 | 0.00 | 0.01 | 66 | 1005.8 |
| 20260507122227 | 90 | 187 | 5.0 | 7.0 | 0.00 | 0.00 | 0.01 | 65 | 1005.8 |
| 20260507121727 | 90 | 118 | 1.0 | 5.0 | 0.00 | 0.00 | 0.01 | 65 | 1005.8 |
| 20260507121228 | 91 | 166 | 4.0 | 5.0 | 0.00 | 0.00 | 0.01 | 64 | 1005.4 |
| 20260507120730 | 91 | 172 | 2.0 | 3.0 | 0.00 | 0.00 | 0.01 | 63 | 1005.4 |
| 20260507120227 | 91 | 115 | 3.0 | 7.0 | 0.00 | 0.00 | 0.01 | 62 | 1005.4 |
| 20260507115730 | 91 | 127 | 5.0 | 7.0 | 0.00 | 0.00 | 0.01 | 62 | 1005.4 |
| 20260507115227 | 91 | 155 | 2.0 | 7.0 | 0.00 | 0.00 | 0.01 | 61 | 1005.4 |
| 20260507114728 | 91 | 186 | 4.0 | 6.0 | 0.00 | 0.00 | 0.01 | 61 | 1005.4 |
| 20260507114230 | 91 | 207 | 1.0 | 10.0 | 0.00 | 0.00 | 0.01 | 62 | 1005.4 |
| 20260507113730 | 92 | 199 | 3.0 | 7.0 | 0.00 | 0.00 | 0.01 | 61 | 1005.1 |
| 20260507113228 | 92 | 176 | 4.0 | 11.0 | 0.00 | 0.00 | 0.01 | 61 | 1005.4 |
| 20260507112727 | 92 | 108 | 2.0 | 7.0 | 0.00 | 0.00 | 0.01 | 62 | 1005.4 |
| 20260507112228 | 93 | 196 | 7.0 | 8.0 | 0.00 | 0.00 | 0.01 | 61 | 1005.1 |
| 20260507111727 | 93 | 167 | 5.0 | 7.0 | 0.00 | 0.00 | 0.01 | 61 | 1005.4 |
| 20260507111230 | 92 | 228 | 3.0 | 8.0 | 0.00 | 0.00 | 0.01 | 62 | 1005.4 |
| 20260507110728 | 93 | 157 | 3.0 | 6.0 | 0.00 | 0.00 | 0.01 | 61 | 1005.4 |
| 20260507110227 | 93 | 146 | 8.0 | 10.0 | 0.00 | 0.00 | 0.01 | 59 | 1005.4 |
| 20260507105727 | 94 | 189 | 2.0 | 9.0 | 0.00 | 0.00 | 0.01 | 58 | 1005.8 |
| 20260507105227 | 94 | 209 | 2.0 | 9.0 | 0.00 | 0.00 | 0.01 | 58 | 1005.8 |
| 20260507104729 | 94 | 172 | 1.0 | 7.0 | 0.00 | 0.00 | 0.01 | 58 | 1005.8 |
| 20260507104227 | 94 | 184 | 4.0 | 6.0 | 0.00 | 0.00 | 0.01 | 57 | 1005.8 |
| 20260507103727 | 94 | 195 | 3.0 | 6.0 | 0.00 | 0.00 | 0.01 | 59 | 1005.8 |
| 20260507103228 | 94 | 140 | 3.0 | 7.0 | 0.00 | 0.00 | 0.01 | 58 | 1005.8 |
| 20260507102729 | 94 | 218 | 4.0 | 8.0 | 0.00 | 0.00 | 0.01 | 60 | 1005.8 |
| 20260507102227 | 95 | 124 | 1.0 | 3.0 | 0.00 | 0.00 | 0.01 | 58 | 1005.8 |
| 20260507101727 | 95 | 135 | 2.0 | 8.0 | 0.00 | 0.00 | 0.01 | 58 | 1005.8 |
| 20260507101227 | 94 | 136 | 6.0 | 9.0 | 0.00 | 0.00 | 0.01 | 61 | 1005.8 |
| 20260507100730 | 94 | 200 | 4.0 | 9.0 | 0.00 | 0.00 | 0.01 | 61 | 1006.1 |
| 20260507100230 | 93 | 185 | 5.0 | 7.0 | 0.00 | 0.00 | 0.01 | 62 | 1006.1 |
| 20260507095727 | 93 | 222 | 2.0 | 6.0 | 0.00 | 0.00 | 0.01 | 61 | 1006.1 |
| 20260507095227 | 94 | 187 | 2.0 | 6.0 | 0.00 | 0.00 | 0.01 | 58 | 1006.1 |
| 20260507094729 | 95 | 202 | 2.0 | 3.0 | 0.00 | 0.00 | 0.01 | 55 | 1006.4 |
| 20260507094230 | 96 | 90 | 3.0 | 9.0 | 0.00 | 0.00 | 0.01 | 55 | 1006.4 |
| 20260507093727 | 96 | 117 | 5.0 | 6.0 | 0.00 | 0.00 | 0.01 | 54 | 1006.4 |
| 20260507093228 | 95 | 176 | 3.0 | 6.0 | 0.00 | 0.00 | 0.01 | 55 | 1006.4 |
| 20260507092729 | 95 | 155 | 2.0 | 8.0 | 0.00 | 0.00 | 0.01 | 57 | 1006.4 |
| 20260507092228 | 95 | 233 | 3.0 | 5.0 | 0.00 | 0.00 | 0.01 | 56 | 1006.4 |
| 20260507091728 | 94 | 148 | 2.0 | 8.0 | 0.00 | 0.00 | 0.01 | 57 | 1006.4 |
| 20260507091230 | 95 | 199 | 4.0 | 5.0 | 0.01 | 0.00 | 0.01 | 57 | 1006.4 |
| 20260507090728 | 96 | 175 | 5.0 | 9.0 | 0.01 | 0.00 | 0.01 | 56 | 1006.4 |
| 20260507090233 | 96 | 191 | 3.0 | 6.0 | 0.01 | 0.00 | 0.01 | 55 | 1006.4 |
| 20260507085728 | 95 | 93 | 4.0 | 7.0 | 0.01 | 0.00 | 0.01 | 56 | 1006.8 |
| 20260507085227 | 95 | 215 | 3.0 | 8.0 | 0.01 | 0.00 | 0.01 | 58 | 1006.8 |
| 20260507084727 | 95 | 206 | 2.0 | 6.0 | 0.01 | 0.00 | 0.01 | 58 | 1006.8 |
| 20260507084227 | 95 | 150 | 3.0 | 5.0 | 0.01 | 0.00 | 0.01 | 57 | 1006.8 |
| 20260507083729 | 94 | 184 | 4.0 | 7.0 | 0.01 | 0.00 | 0.01 | 62 | 1006.8 |
| 20260507083228 | 93 | 161 | 1.0 | 10.0 | 0.01 | 0.00 | 0.01 | 63 | 1006.8 |
| 20260507082729 | 93 | 189 | 4.0 | 8.0 | 0.01 | 0.00 | 0.01 | 65 | 1007.1 |
| 20260507082227 | 93 | 167 | 3.0 | 7.0 | 0.01 | 0.00 | 0.01 | 65 | 1007.1 |
| 20260507081730 | 92 | 190 | 6.0 | 10.0 | 0.01 | 0.00 | 0.01 | 66 | 1007.5 |
| 20260507081228 | 92 | 174 | 1.0 | 7.0 | 0.00 | 0.00 | 0.01 | 67 | 1007.5 |
| 20260507080727 | 91 | 165 | 1.0 | 6.0 | 0.00 | 0.00 | 0.00 | 74 | 1007.5 |
| 20260507080227 | 92 | 175 | 1.0 | 5.0 | 0.00 | 0.00 | 0.00 | 70 | 1007.5 |
| 20260507075728 | 90 | 184 | 3.0 | 6.0 | 0.00 | 0.00 | 0.00 | 70 | 1007.5 |
| 20260507075228 | 92 | 174 | 3.0 | 8.0 | 0.00 | 0.00 | 0.00 | 68 | 1007.8 |
| 20260507074727 | 92 | 207 | 1.0 | 5.0 | 0.00 | 0.00 | 0.00 | 63 | 1007.8 |
| 20260507074227 | 92 | 124 | 3.0 | 8.0 | 0.00 | 0.00 | 0.00 | 63 | 1007.8 |
| 20260507073727 | 92 | 123 | 3.0 | 9.0 | 0.00 | 0.00 | 0.00 | 63 | 1007.5 |
| 20260507073230 | 93 | 174 | 5.0 | 13.0 | 0.00 | 0.00 | 0.00 | 62 | 1007.8 |
| 20260507072729 | 94 | 141 | 3.0 | 7.0 | 0.00 | 0.00 | 0.00 | 61 | 1008.1 |
| 20260507072227 | 94 | 217 | 3.0 | 8.0 | 0.00 | 0.00 | 0.00 | 60 | 1008.1 |
| 20260507071728 | 93 | 233 | 5.0 | 6.0 | 0.00 | 0.00 | 0.00 | 60 | 1008.5 |
| 20260507071228 | 93 | 144 | 3.0 | 5.0 | 0.00 | 0.00 | 0.00 | 62 | 1008.5 |
| 20260507070728 | 93 | 206 | 1.0 | 6.0 | 0.00 | 0.00 | 0.00 | 62 | 1008.5 |
| 20260507070228 | 93 | 119 | 6.0 | 8.0 | 0.00 | 0.00 | 0.00 | 61 | 1008.5 |
| 20260507065728 | 92 | 142 | 2.0 | 5.0 | 0.00 | 0.00 | 0.00 | 64 | 1008.8 |
| 20260507065229 | 92 | 180 | 2.0 | 3.0 | 0.00 | 0.00 | 0.00 | 64 | 1008.8 |
| 20260507064728 | 93 | 136 | 1.0 | 5.0 | 0.00 | 0.00 | 0.00 | 64 | 1008.8 |
| 20260507064227 | 93 | 187 | 3.0 | 5.0 | 0.00 | 0.00 | 0.00 | 61 | 1008.5 |
| 20260507063727 | 94 | 175 | 1.0 | 7.0 | 0.00 | 0.00 | 0.00 | 60 | 1008.8 |
| 20260507063228 | 94 | 170 | 7.0 | 9.0 | 0.00 | 0.00 | 0.00 | 58 | 1008.8 |
| 20260507062727 | 93 | 227 | 6.0 | 9.0 | 0.00 | 0.00 | 0.00 | 60 | 1008.8 |
| 20260507062229 | 92 | 130 | 2.0 | 8.0 | 0.00 | 0.00 | 0.00 | 61 | 1008.8 |
| 20260507061727 | 92 | 171 | 2.0 | 7.0 | 0.00 | 0.00 | 0.00 | 62 | 1008.8 |
| 20260507061228 | 93 | 178 | 8.0 | 9.0 | 0.00 | 0.00 | 0.00 | 61 | 1009.1 |
| 20260507060728 | 93 | 214 | 4.0 | 7.0 | 0.00 | 0.00 | 0.00 | 60 | 1009.1 |
| 20260507060227 | 93 | 225 | 4.0 | 6.0 | 0.00 | 0.00 | 0.00 | 59 | 1009.1 |
| 20260507055727 | 93 | 172 | 1.0 | 6.0 | 0.00 | 0.00 | 0.00 | 60 | 1009.1 |
| 20260507055227 | 95 | 234 | 3.0 | 9.0 | 0.00 | 0.00 | 0.00 | 57 | 1009.1 |
| 20260507054727 | 95 | 250 | 2.0 | 5.0 | 0.00 | 0.00 | 0.00 | 57 | 1009.1 |
| 20260507054227 | 94 | 158 | 4.0 | 5.0 | 0.00 | 0.00 | 0.00 | 58 | 1008.8 |
| 20260507053728 | 94 | 145 | 7.0 | 10.0 | 0.00 | 0.00 | 0.00 | 59 | 1009.5 |
| 20260507053228 | 92 | 191 | 2.0 | 11.0 | 0.00 | 0.00 | 0.00 | 62 | 1009.1 |
| 20260507052727 | 93 | 243 | 5.0 | 7.0 | 0.00 | 0.00 | 0.00 | 61 | 1009.5 |
| 20260507052227 | 92 | 219 | 2.0 | 6.0 | 0.00 | 0.00 | 0.00 | 62 | 1009.1 |
| 20260507051728 | 92 | 223 | 9.0 | 14.0 | 0.00 | 0.00 | 0.00 | 62 | 1009.5 |
| 20260507051227 | 93 | 153 | 4.0 | 8.0 | 0.00 | 0.00 | 0.00 | 61 | 1009.5 |
| 20260507050727 | 93 | 114 | 0.0 | 8.0 | 0.00 | 0.00 | 0.00 | 61 | 1009.5 |
| 20260507050227 | 92 | 269 | 3.0 | 7.0 | 0.00 | 0.00 | 0.00 | 62 | 1009.5 |
| 20260507045727 | 92 | 150 | 4.0 | 8.0 | 0.00 | 0.00 | 0.00 | 63 | 1009.5 |
| 20260507045227 | 93 | 144 | 5.0 | 9.0 | 0.00 | 0.00 | 0.00 | 61 | 1009.5 |
| 20260507044728 | 94 | 170 | 4.0 | 9.0 | 0.00 | 0.00 | 0.00 | 60 | 1009.5 |
| 20260507044228 | 94 | 200 | 6.0 | 8.0 | 0.00 | 0.00 | 0.00 | 59 | 1009.5 |
| 20260507043728 | 93 | 256 | 2.0 | 6.0 | 0.00 | 0.00 | 0.00 | 61 | 1009.5 |
| 20260507043228 | 92 | 265 | 3.0 | 7.0 | 0.00 | 0.00 | 0.00 | 62 | 1009.5 |
| 20260507042729 | 93 | 179 | 7.0 | 9.0 | 0.00 | 0.00 | 0.00 | 61 | 1009.8 |
| 20260507042228 | 93 | 234 | 1.0 | 5.0 | 0.00 | 0.00 | 0.00 | 61 | 1009.5 |
| 20260507041728 | 93 | 226 | 4.0 | 6.0 | 0.00 | 0.00 | 0.00 | 60 | 1009.8 |
| 20260507041228 | 93 | 215 | 3.0 | 8.0 | 0.00 | 0.00 | 0.00 | 61 | 1009.8 |
| 20260507040728 | 94 | 139 | 4.0 | 7.0 | 0.00 | 0.00 | 0.00 | 60 | 1009.5 |
| 20260507040228 | 93 | 180 | 1.0 | 6.0 | 0.00 | 0.00 | 0.00 | 61 | 1009.8 |
| 20260507035728 | 93 | 212 | 3.0 | 6.0 | 0.00 | 0.00 | 0.00 | 61 | 1009.5 |
| 20260507035227 | 93 | 145 | 5.0 | 6.0 | 0.00 | 0.00 | 0.00 | 61 | 1009.5 |
| 20260507034727 | 92 | 219 | 1.0 | 2.0 | 0.00 | 0.00 | 0.00 | 62 | 1009.5 |
| 20260507034227 | 92 | 106 | 3.0 | 5.0 | 0.00 | 0.00 | 0.00 | 62 | 1009.5 |
| 20260507033728 | 91 | 167 | 1.0 | 5.0 | 0.00 | 0.00 | 0.00 | 64 | 1009.5 |
| 20260507033229 | 90 | 122 | 3.0 | 6.0 | 0.00 | 0.00 | 0.00 | 65 | 1009.8 |
| 20260507032727 | 90 | 229 | 5.0 | 10.0 | 0.00 | 0.00 | 0.00 | 64 | 1009.8 |
| 20260507032228 | 91 | 221 | 5.0 | 6.0 | 0.00 | 0.00 | 0.00 | 64 | 1009.5 |
| 20260507031727 | 90 | 129 | 3.0 | 8.0 | 0.00 | 0.00 | 0.00 | 66 | 1009.5 |
| 20260507031228 | 89 | 176 | 2.0 | 7.0 | 0.00 | 0.00 | 0.00 | 68 | 1009.5 |
| 20260507030727 | 89 | 140 | 2.0 | 6.0 | 0.00 | 0.00 | 0.00 | 69 | 1009.5 |
| 20260507030229 | 90 | 157 | 2.0 | 7.0 | 0.00 | 0.00 | 0.00 | 68 | 1009.5 |
| 20260507025729 | 91 | 98 | 0.0 | 2.0 | 0.00 | 0.00 | 0.00 | 67 | 1009.5 |
| 20260507025230 | 90 | 103 | 0.0 | 2.0 | 0.00 | 0.00 | 0.00 | 69 | 1009.5 |
| 20260507024727 | 89 | 143 | 2.0 | 3.0 | 0.00 | 0.00 | 0.00 | 70 | 1009.5 |
| 20260507024227 | 89 | 200 | 2.0 | 5.0 | 0.00 | 0.00 | 0.00 | 69 | 1009.1 |
| 20260507023727 | 90 | 185 | 3.0 | 7.0 | 0.00 | 0.00 | 0.00 | 69 | 1009.1 |
| 20260507023227 | 90 | 90 | 0.0 | 2.0 | 0.00 | 0.00 | 0.00 | 72 | 1009.5 |
| 20260507022728 | 89 | 140 | 0.0 | 1.0 | 0.00 | 0.00 | 0.00 | 73 | 1009.1 |
| 20260507022230 | 89 | 86 | 0.0 | 2.0 | 0.00 | 0.00 | 0.00 | 74 | 1009.1 |
| 20260507021728 | 88 | 163 | 1.0 | 2.0 | 0.00 | 0.00 | 0.00 | 76 | 1008.8 |
| 20260507021230 | 88 | 178 | 2.0 | 3.0 | 0.00 | 0.00 | 0.00 | 76 | 1009.1 |
| 20260507020727 | 88 | 203 | 2.0 | 2.0 | 0.00 | 0.00 | 0.00 | 76 | 1008.8 |
| 20260507020227 | 88 | 203 | 0.0 | 1.0 | 0.00 | 0.00 | 0.00 | 77 | 1008.8 |
| 20260507015727 | 88 | 183 | 1.0 | 2.0 | 0.00 | 0.00 | 0.00 | 76 | 1008.8 |
| 20260507015229 | 87 | 95 | 0.0 | 1.0 | 0.00 | 0.00 | 0.00 | 78 | 1008.8 |
| 20260507014729 | 87 | 168 | 2.0 | 2.0 | 0.00 | 0.00 | 0.00 | 78 | 1008.8 |
| 20260507014228 | 87 | 80 | 1.0 | 2.0 | 0.00 | 0.00 | 0.00 | 79 | 1008.8 |
| 20260507013727 | 86 | 110 | 0.0 | 2.0 | 0.00 | 0.00 | 0.00 | 80 | 1008.8 |
| 20260507013229 | 86 | 130 | 1.0 | 1.0 | 0.00 | 0.00 | 0.00 | 80 | 1008.5 |
| 20260507012729 | 85 | 129 | 0.0 | 1.0 | 0.00 | 0.00 | 0.00 | 82 | 1008.5 |
| 20260507012229 | 85 | 111 | 1.0 | 2.0 | 0.00 | 0.00 | 0.00 | 81 | 1008.5 |
| 20260507011730 | 85 | 44 | 1.0 | 1.0 | 0.00 | 0.00 | 0.00 | 81 | 1008.5 |
| 20260507011228 | 84 | 44 | 0.0 | 0.0 | 0.00 | 0.00 | 0.00 | 83 | 1008.1 |
| 20260507010729 | 83 | 44 | 1.0 | 1.0 | 0.00 | 0.00 | 0.00 | 84 | 1008.1 |
| 20260507010230 | 83 | 44 | 0.0 | 0.0 | 0.00 | 0.00 | 0.00 | 85 | 1008.1 |
| 20260507005729 | 82 | 44 | 0.0 | 1.0 | 0.00 | 0.00 | 0.00 | 86 | 1008.5 |
| 20260507005227 | 82 | 44 | 0.0 | 1.0 | 0.00 | 0.00 | 0.00 | 87 | 1008.1 |
| 20260507004728 | 81 | 44 | 0.0 | 1.0 | 0.00 | 0.00 | 0.00 | 87 | 1008.1 |
| 20260507004228 | 81 | 44 | 0.0 | 0.0 | 0.00 | 0.00 | 0.00 | 88 | 1007.8 |
| 20260507003728 | 81 | 44 | 0.0 | 0.0 | 0.00 | 0.00 | 0.00 | 89 | 1007.8 |
| 20260507003229 | 80 | 44 | 0.0 | 1.0 | 0.00 | 0.00 | 0.00 | 89 | 1007.8 |
| 20260507002728 | 80 | 44 | 1.0 | 1.0 | 0.00 | 0.00 | 0.00 | 89 | 1007.8 |
| 20260507002227 | 80 | 8 | 0.0 | 1.0 | 0.00 | 0.00 | 0.00 | 89 | 1007.8 |
| 20260507001730 | 80 | 8 | 1.0 | 3.0 | 0.00 | 0.00 | 0.00 | 88 | 1007.5 |
| 20260507001227 | 81 | 122 | 0.0 | 1.0 | 0.00 | 0.00 | 0.00 | 88 | 1007.5 |
| 20260507000728 | 81 | 130 | 0.0 | 0.0 | 0.00 | 0.00 | 0.00 | 88 | 1007.5 |
| 20260507000228 | 81 | 130 | 0.0 | 0.0 | 0.00 | 0.00 | 0.00 | 88 | 1007.5 |
| 20260506235727 | 81 | 130 | 0.0 | 0.0 | 0.00 | 0.00 | 0.00 | 88 | 1007.5 |
| 20260506235227 | 81 | 130 | 0.0 | 0.0 | 0.00 | 0.00 | 0.00 | 88 | 1007.1 |
| 20260506234729 | 81 | 130 | 0.0 | 0.0 | 0.00 | 0.00 | 0.00 | 88 | 1007.5 |
| 20260506234227 | 81 | 130 | 0.0 | 0.0 | 0.00 | 0.00 | 0.00 | 88 | 1007.5 |
| 20260506233727 | 81 | 130 | 0.0 | 0.0 | 0.00 | 0.00 | 0.00 | 88 | 1007.1 |
| 20260506233231 | 81 | 130 | 0.0 | 0.0 | 0.00 | 0.00 | 0.00 | 88 | 1007.1 |
| 20260506232728 | 81 | 130 | 0.0 | 0.0 | 0.00 | 0.00 | 0.00 | 88 | 1007.1 |
| 20260506232227 | 81 | 130 | 0.0 | 0.0 | 0.00 | 0.00 | 0.00 | 88 | 1007.1 |
| 20260506231727 | 81 | 130 | 0.0 | 0.0 | 0.00 | 0.00 | 0.00 | 88 | 1007.1 |
| 20260506231228 | 81 | 130 | 0.0 | 0.0 | 0.00 | 0.00 | 0.00 | 89 | 1006.8 |
| 20260506230727 | 81 | 130 | 0.0 | 0.0 | 0.00 | 0.00 | 0.00 | 89 | 1007.1 |
| 20260506230229 | 81 | 130 | 0.0 | 1.0 | 0.00 | 0.00 | 0.00 | 89 | 1006.8 |
| 20260506225729 | 81 | 130 | 0.0 | 1.0 | 0.00 | 0.00 | 0.00 | 89 | 1006.8 |
| 20260506225229 | 81 | 130 | 0.0 | 0.0 | 0.00 | 0.00 | 0.00 | 89 | 1006.8 |
| 20260506224727 | 81 | 130 | 0.0 | 0.0 | 0.00 | 0.00 | 0.00 | 89 | 1006.8 |
| 20260506224229 | 81 | 130 | 1.0 | 1.0 | 0.00 | 0.00 | 0.00 | 89 | 1006.8 |
| 20260506223728 | 81 | 130 | 1.0 | 1.0 | 0.00 | 0.00 | 0.00 | 89 | 1006.4 |
| 20260506223229 | 81 | 130 | 1.0 | 1.0 | 0.00 | 0.00 | 0.00 | 89 | 1006.8 |
| 20260506222729 | 81 | 130 | 1.0 | 1.0 | 0.00 | 0.00 | 0.00 | 89 | 1006.8 |
| 20260506222227 | 81 | 130 | 0.0 | 0.0 | 0.00 | 0.00 | 0.00 | 89 | 1006.8 |
| 20260506221729 | 81 | 130 | 0.0 | 0.0 | 0.00 | 0.00 | 0.00 | 89 | 1006.8 |
| 20260506221227 | 81 | 130 | 0.0 | 0.0 | 0.00 | 0.00 | 0.00 | 89 | 1007.1 |
| 20260506220729 | 81 | 130 | 0.0 | 0.0 | 0.00 | 0.00 | 0.00 | 89 | 1006.8 |
| 20260506220228 | 81 | 130 | 0.0 | 1.0 | 0.00 | 0.00 | 0.00 | 89 | 1006.8 |
| 20260506215728 | 81 | 130 | 0.0 | 0.0 | 0.00 | 0.00 | 0.00 | 89 | 1006.8 |
| 20260506215229 | 81 | 130 | 0.0 | 0.0 | 0.00 | 0.00 | 0.00 | 89 | 1006.8 |
| 20260506214728 | 82 | 130 | 1.0 | 1.0 | 0.00 | 0.00 | 0.00 | 88 | 1006.8 |
| 20260506214230 | 82 | 130 | 0.0 | 0.0 | 0.00 | 0.00 | 0.00 | 88 | 1006.8 |
| 20260506213727 | 82 | 130 | 0.0 | 0.0 | 0.00 | 0.00 | 0.00 | 88 | 1006.8 |